Regional Weather Roundup
Issued by NWS

Home | Current Version | Previous Version | Text Only | Print | Product List | Glossary Off
Versions: 1 2 3 4 5 6 7 8 9 10 11 12 13 14 15 16 17 18 19 20 21 22 23 24 25 26 27 28 29 30 31 32 33 34 35 36 37 38 39 40 41 42 43 44 45 46 47 48 49 50

000
ASUS43 KLOT 030106
RWRIL

ILLINOIS REGIONAL WEATHER ROUNDUP
NATIONAL WEATHER SERVICE CHICAGO/ROMEOVILLE IL
800 PM CDT TUE SEP 02 2014

NOTE: "FAIR" INDICATES FEW OR NO CLOUDS BELOW 12,000 FEET WITH NO
SIGNIFICANT WEATHER AND/OR OBSTRUCTIONS TO VISIBILITY.

* THESE STATIONS ARE NOT UNDER NWS QUALITY CONTROL. THEY ALSO MAY NOT
  REPORT WEATHER SUCH AS PRECIPITATION OR FOG.

ILZ001-002-007-009-015-016-024-030200-
NORTHWEST ILLINOIS

CITY           SKY/WX    TMP DP  RH WIND       PRES   REMARKS
MOLINE         CLEAR     69  62  78 SW3       29.92R
STERLING*      CLEAR     70  61  73 CALM      29.93R
SAVANNA*       CLEAR     71  59  65 N3        29.92R
$$

ILZ003-004-008-010-011-017-018-030200-
NORTH CENTRAL ILLINOIS

CITY           SKY/WX    TMP DP  RH WIND       PRES   REMARKS
ROCKFORD       CLEAR     72  60  66 SW3       29.93R
FREEPORT*      CLEAR     68  62  79 W3        29.95R
ROCHELLE*      CLEAR     69  63  80 W3        29.93R
DE KALB*       PTCLDY    69  62  78 W5        29.93R
PERU*          CLEAR     73  63  72 W6        29.92S
$$

ILZ005-006-012>014-019>023-030200-
NORTHEAST ILLINOIS

CITY           SKY/WX    TMP DP  RH WIND       PRES   REMARKS
CHICAGO-OHARE  PTCLDY    74  57  55 W6        29.91R
CHICAGO-MIDWAY PTCLDY    78  57  48 W7        29.91R
AURORA         MOCLDY    71  62  73 CALM      29.92R
LANSING*         N/A    N/A N/A N/A MISG        N/A
JOLIET*        CLEAR     68  61  77 CALM      29.93R
WAUKEGAN       CLEAR     67  61  81 CALM      29.90R
DUPAGE AIRPORT MOCLDY    74  60  61 SW3       29.91R
KANKAKEE*      DRIZZLE   70  64  83 CALM      29.93R
WHEELING       PTCLDY    77  58  51 W6        29.92R
MORRIS*        CLEAR     70  65  84 W3        29.92R
ROMEOVILLE*    CLEAR     71  60  67 W3        29.92R
NORTHERLY ISL    N/A     72  64  76 S3          N/A
$$

LMZ740>746-030200-
SOUTHERN LAKE MICHIGAN

STATION/POSITION SKY/WX   TEMP    WIND        PRES    VSBY  WAVE
                          AIR SEA DIR/SP/G                  HT/PER
                          (F)     (DEG/KT/KT) (MB)    (MI)  (FT/S)
SOUTHERN BUOY              72 72  140/  6/  6 1012.3R         0
WAUKEGAN HARBOR            75     330/  2/  4   N/A
HARRISON CRIB              73     160/  7/  8   N/A
BURNHAM HARBOR             72     150/  3/  6   N/A
CALUMET HARBOR             74     120/  1/  3 1011.7R
MICHIGAN CITY              74     110/  4/  5   N/A
MICHIGAN CITY 6N           73 73  120/  4/  4   N/A           0
ST. JOSEPH                 73 73  160/  2/  2   N/A           1
$$

ILZ025>027-034>036-040-047-049-050-058-095>099-030200-
WEST-CENTRAL ILLINOIS

CITY           SKY/WX    TMP DP  RH WIND       PRES   REMARKS
QUINCY         PTCLDY    75  67  76 CALM      29.94R
GALESBURG*     CLEAR     71  64  77 W3        29.94R
MACOMB*        CLEAR     70  64  82 W3        29.95S
JACKSONVILLE*  PTCLDY    73  68  85 S3        29.95R
PITTSFIELD*    CLEAR     73  66  78 CALM      29.96R
$$

ILZ028>032-037-038-041>044-048-051>054-059>061-030200-
CENTRAL ILLINOIS

CITY           SKY/WX    TMP DP  RH WIND       PRES   REMARKS
PONTIAC        PTCLDY    70  70 100 CALM      29.93R
DECATUR        MOCLDY    76  69  79 SW5       29.95R
PEORIA         CLEAR     73  64  73 CALM      29.92S
LACON*         CLEAR     70  65  83 CALM      29.92R
LINCOLN*       PTCLDY    74  65  74 CALM      29.91R
SPRINGFIELD    PTCLDY    73  69  87 SW5       29.94R
TAYLORVILLE    MOCLDY    72  68  88 SW5       29.95R
$$

ILZ033-039-045-046-055>057-062-063-030200-
EAST-CENTRAL ILLINOIS

CITY           SKY/WX    TMP DP  RH WIND       PRES   REMARKS
CHAMPAIGN      MOCLDY    71  68  90 SW5       29.95R
DANVILLE*      PTCLDY    69  68  96 CALM      29.92R
RANTOUL*       MOCLDY    72  65  80 CALM      29.94R
MATTOON        CLEAR     72  69  90 S5        29.95R
PARIS*         PTCLDY    69  68  96 CALM      29.96R
$$

ILZ079-100>102-030200-
SOUTHWEST ILLINOIS

CITY           SKY/WX    TMP DP  RH WIND       PRES   REMARKS
ALTON          PTCLDY    72  68  88 W5        29.96R
BELLEVILLE     CLEAR     73  72  95 CALM      29.96R
CAHOKIA*       CLEAR     73  67  81 CALM      29.96R
SPARTA*        CLEAR     74  69  85 CALM      29.99R
$$

ILZ064>066-069>071-074>076-080>082-084>086-088>090-092>094-030200-
SOUTH-CENTRAL ILLINOIS

CITY           SKY/WX    TMP DP  RH WIND       PRES   REMARKS
CARBONDALE     CLEAR     74  70  87 CALM      29.97R
CAIRO*         CLOUDY    76  71  83 CALM      29.97R
EFFINGHAM*     CLEAR     71  67  88 CALM      29.96R
MARION         MOCLDY    75  72  88 CALM      29.98R
MT. VERNON     CLEAR     72  66  83 CALM      29.98R
CENTRALIA*     CLEAR     70  67  89 S3        29.98R
SALEM*         CLEAR     73  71  94 CALM      29.97R
METROPOLIS*    CLEAR     74  72  92 CALM      29.96R
$$

ILZ067-068-072-073-078-083-087-091-030200-
SOUTHEAST ILLINOIS

CITY           SKY/WX    TMP DP  RH WIND       PRES   REMARKS
LAWRENCEVILLE  CLEAR     72  70  93 CALM      29.95R
FLORA*         CLEAR     69  67  93 CALM      29.97R
FAIRFIELD*     CLEAR     73  72  94 CALM      29.96R
HARRISBURG*    CLEAR     73  73  98 CALM      29.99R
ROBINSON*      CLEAR     70  68  96 CALM      29.96R
CARMI*         CLEAR     73  72  96 CALM      29.96R FOG
$$

ABBREVIATIONS USED IN REMARKS
   TC - TEMPERATURE IN CELSIUS
  WCI - WIND CHILL INDEX
   HX - HEAT INDEX
  VSB - VISIBILITY
$$




USA.gov is the U.S. government's official web portal to all federal, state and local government web resources and services.